When you browse on this site, cookies collect data to enhance your experience and personalize the content and advertising you see.
Visit our Privacy Policy to learn more. By continuing to use the site, you agree to this use of cookies and data.
  • In Deutschland
  • Länderverzeichnis
  • Für 7 Tage
  • Wassertemperatur
  • Satellitenkarten
  • Wetterkarte
  • Widgets
  • user-avatar
    Anmelden

    Stündliche Wetter Mbandaka

    Heute, 22 Januar, Dienstag

    Zeit Temperatur Niederschläge Wind Luftdruck Luftfeuchtigkeit
    00:00 +28°C° 0 mm 1 m/S 731 mmHg 72%
    01:00 +27°C° 0 mm 1 m/S 731 mmHg 75%
    02:00 +27°C° 0 mm 1 m/S 731 mmHg 75%
    03:00 +26°C° 0 mm 1 m/S 731 mmHg 76%
    04:00 +24°C° 0 mm 0 m/S 731 mmHg 76%
    05:00 +24°C° 0.2 mm 0 m/S 731 mmHg 77%
    06:00 +25°C° 0.2 mm 0 m/S 731 mmHg 77%
    07:00 +25°C° 0 mm 0 m/S 731 mmHg 77%
    08:00 +28°C° 0 mm 0 m/S 731 mmHg 64%
    09:00 +33°C° 0 mm 1 m/S 732 mmHg 52%
    10:00 +37°C° 0 mm 1 m/S 732 mmHg 39%
    11:00 +40°C° 0 mm 1 m/S 731 mmHg 34%
    12:00 +39°C° 0 mm 0 m/S 730 mmHg 29%
    13:00 +41°C° 0 mm 0 m/S 730 mmHg 24%
    14:00 +38°C° 0 mm 0 m/S 729 mmHg 29%
    15:00 +36°C° 0 mm 0 m/S 728 mmHg 34%
    16:00 +33°C° 0 mm 0 m/S 728 mmHg 39%
    17:00 +32°C° 0 mm 0 m/S 728 mmHg 42%
    18:00 +31°C° 0 mm 0 m/S 728 mmHg 44%
    19:00 +32°C° 0 mm 1 m/S 729 mmHg 47%
    20:00 +32°C° 0 mm 1 m/S 729 mmHg 48%
    21:00 +31°C° 0 mm 1 m/S 730 mmHg 49%
    22:00 +31°C° 0 mm 1 m/S 730 mmHg 49%
    23:00 +30°C° 0 mm 1 m/S 730 mmHg 52%

    Morgen, 23 Januar, Mittwoch

    Zeit Temperatur Niederschläge Wind Luftdruck Luftfeuchtigkeit
    00:00 +29°C° 0 mm 1 m/S 730 mmHg 54%
    01:00 +29°C° 0 mm 1 m/S 730 mmHg 56%
    02:00 +28°C° 0 mm 1 m/S 730 mmHg 61%
    03:00 +27°C° 0 mm 2 m/S 730 mmHg 66%
    04:00 +27°C° 0 mm 2 m/S 730 mmHg 70%
    05:00 +27°C° 0 mm 2 m/S 730 mmHg 71%
    06:00 +27°C° 0 mm 3 m/S 731 mmHg 72%
    07:00 +28°C° 0 mm 3 m/S 731 mmHg 73%
    08:00 +30°C° 0 mm 3 m/S 731 mmHg 65%
    09:00 +33°C° 0 mm 3 m/S 732 mmHg 57%
    10:00 +35°C° 0 mm 3 m/S 732 mmHg 49%
    11:00 +36°C° 0 mm 3 m/S 731 mmHg 46%
    12:00 +37°C° 0 mm 3 m/S 731 mmHg 43%
    13:00 +38°C° 0 mm 3 m/S 730 mmHg 40%
    14:00 +37°C° 0 mm 3 m/S 729 mmHg 43%
    15:00 +36°C° 0 mm 2 m/S 729 mmHg 46%
    16:00 +35°C° 0 mm 2 m/S 728 mmHg 50%
    17:00 +34°C° 0.4 mm 2 m/S 729 mmHg 54%
    18:00 +31°C° 0.4 mm 2 m/S 729 mmHg 58%
    19:00 +30°C° 0.4 mm 2 m/S 729 mmHg 62%
    20:00 +29°C° 2 mm 2 m/S 730 mmHg 72%
    21:00 +27°C° 2 mm 1 m/S 730 mmHg 81%
    22:00 +26°C° 2 mm 1 m/S 731 mmHg 91%
    23:00 +25°C° 0.2 mm 1 m/S 731 mmHg 90%

    übermorgen, 24 Januar, Donnerstag

    Zeit Temperatur Niederschläge Wind Luftdruck Luftfeuchtigkeit
    00:00 +25°C° 0.2 mm 1 m/S 731 mmHg 90%
    01:00 +25°C° 0.2 mm 1 m/S 731 mmHg 90%
    02:00 +25°C° 0.7 mm 1 m/S 731 mmHg 91%
    03:00 +24°C° 0.7 mm 1 m/S 731 mmHg 93%
    04:00 +24°C° 0.7 mm 1 m/S 731 mmHg 95%
    05:00 +24°C° 0 mm 1 m/S 731 mmHg 93%
    06:00 +24°C° 0 mm 1 m/S 731 mmHg 92%
    07:00 +24°C° 0 mm 1 m/S 731 mmHg 90%
    08:00 +27°C° 0 mm 2 m/S 731 mmHg 79%
    09:00 +29°C° 0 mm 2 m/S 732 mmHg 68%
    10:00 +31°C° 0 mm 2 m/S 732 mmHg 56%
    11:00 +34°C° 0 mm 2 m/S 731 mmHg 50%
    12:00 +36°C° 0 mm 2 m/S 730 mmHg 44%
    13:00 +38°C° 0 mm 2 m/S 729 mmHg 38%
    14:00 +38°C° 0 mm 2 m/S 729 mmHg 38%
    15:00 +37°C° 0 mm 1 m/S 728 mmHg 38%
    16:00 +37°C° 0 mm 1 m/S 727 mmHg 37%
    17:00 +34°C° 0 mm 1 m/S 727 mmHg 44%
    18:00 +32°C° 0 mm 1 m/S 728 mmHg 50%
    19:00 +30°C° 0 mm 1 m/S 728 mmHg 57%
    20:00 +27°C° 0 mm 0 m/S 729 mmHg 58%
    21:00 +27°C° 0 mm 0 m/S 729 mmHg 59%
    22:00 +26°C° 0 mm 0 m/S 730 mmHg 60%
    23:00 +26°C° 0 mm 0 m/S 730 mmHg 61%

    25 Januar, Freitag

    Zeit Temperatur Niederschläge Wind Luftdruck Luftfeuchtigkeit
    00:00 +26°C° 0 mm 0 m/S 729 mmHg 62%
    01:00 +27°C° 0 mm 1 m/S 729 mmHg 63%
    02:00 +26°C° 0.1 mm 1 m/S 729 mmHg 67%
    03:00 +26°C° 0.1 mm 1 m/S 729 mmHg 72%
    04:00 +25°C° 0.1 mm 1 m/S 729 mmHg 77%
    05:00 +25°C° 0 mm 1 m/S 729 mmHg 76%
    06:00 +26°C° 0 mm 1 m/S 730 mmHg 76%
    07:00 +26°C° 0 mm 1 m/S 731 mmHg 75%
    08:00 +29°C° 0 mm 1 m/S 731 mmHg 64%
    09:00 +32°C° 0 mm 1 m/S 731 mmHg 53%
    10:00 +36°C° 0 mm 2 m/S 732 mmHg 42%
    11:00 +38°C° 0 mm 2 m/S 731 mmHg 38%
    12:00 +39°C° 0 mm 1 m/S 730 mmHg 35%
    13:00 +41°C° 0 mm 1 m/S 729 mmHg 31%
    14:00 +40°C° 0 mm 1 m/S 728 mmHg 32%
    15:00 +39°C° 0 mm 1 m/S 728 mmHg 33%
    16:00 +39°C° 0 mm 1 m/S 727 mmHg 34%
    17:00 +36°C° 0 mm 1 m/S 727 mmHg 40%
    18:00 +31°C° 0 mm 0 m/S 728 mmHg 46%
    19:00 +29°C° 0 mm 0 m/S 728 mmHg 51%
    20:00 +30°C° 0.2 mm 1 m/S 728 mmHg 56%
    21:00 +29°C° 0.2 mm 1 m/S 729 mmHg 61%
    22:00 +28°C° 0.2 mm 1 m/S 729 mmHg 66%
    23:00 +28°C° 0.8 mm 1 m/S 729 mmHg 72%

    26 Januar, Samstag

    Zeit Temperatur Niederschläge Wind Luftdruck Luftfeuchtigkeit
    00:00 +27°C° 0.8 mm 1 m/S 730 mmHg 77%
    01:00 +26°C° 0.8 mm 1 m/S 730 mmHg 83%
    02:00 +26°C° 1.1 mm 1 m/S 730 mmHg 87%
    03:00 +25°C° 1.1 mm 1 m/S 730 mmHg 91%
    04:00 +25°C° 1.1 mm 1 m/S 730 mmHg 95%
    05:00 +25°C° 0.1 mm 1 m/S 730 mmHg 94%
    06:00 +25°C° 0.1 mm 1 m/S 731 mmHg 93%
    07:00 +26°C° 0.1 mm 1 m/S 732 mmHg 92%
    08:00 +28°C° 0 mm 2 m/S 732 mmHg 79%
    09:00 +31°C° 0 mm 2 m/S 732 mmHg 66%
    10:00 +35°C° 0 mm 2 m/S 733 mmHg 53%
    11:00 +36°C° 0 mm 2 m/S 732 mmHg 48%
    12:00 +37°C° 0 mm 2 m/S 731 mmHg 43%
    13:00 +39°C° 0 mm 2 m/S 730 mmHg 38%
    14:00 +37°C° 0 mm 2 m/S 729 mmHg 43%
    15:00 +34°C° 0 mm 1 m/S 728 mmHg 49%
    16:00 +33°C° 0 mm 1 m/S 728 mmHg 55%
    17:00 +32°C° 0.1 mm 1 m/S 728 mmHg 60%
    18:00 +30°C° 0.1 mm 1 m/S 729 mmHg 64%
    19:00 +29°C° 0.1 mm 1 m/S 729 mmHg 69%
    20:00 +29°C° 0 mm 1 m/S 730 mmHg 71%
    21:00 +28°C° 0 mm 1 m/S 730 mmHg 73%
    22:00 +26°C° 0 mm 0 m/S 731 mmHg 75%
    23:00 +28°C° 0 mm 1 m/S 731 mmHg 78%

    27 Januar, Sonntag

    Zeit Temperatur Niederschläge Wind Luftdruck Luftfeuchtigkeit
    00:00 +27°C° 0 mm 1 m/S 731 mmHg 80%
    01:00 +27°C° 0 mm 1 m/S 730 mmHg 82%
    02:00 +26°C° 0 mm 1 m/S 730 mmHg 84%
    03:00 +26°C° 0 mm 1 m/S 730 mmHg 86%
    04:00 +25°C° 0 mm 1 m/S 730 mmHg 88%
    05:00 +26°C° 0.1 mm 1 m/S 730 mmHg 87%
    06:00 +26°C° 0.1 mm 1 m/S 731 mmHg 85%
    07:00 +27°C° 0.1 mm 2 m/S 731 mmHg 83%
    08:00 +29°C° 0 mm 2 m/S 731 mmHg 73%
    09:00 +32°C° 0 mm 2 m/S 732 mmHg 62%
    10:00 +35°C° 0 mm 2 m/S 732 mmHg 52%
    11:00 +36°C° 0 mm 2 m/S 731 mmHg 47%
    12:00 +38°C° 0 mm 2 m/S 730 mmHg 42%
    13:00 +39°C° 0 mm 2 m/S 729 mmHg 38%
    14:00 +37°C° 0 mm 1 m/S 728 mmHg 41%
    15:00 +36°C° 0 mm 1 m/S 728 mmHg 45%
    16:00 +35°C° 0 mm 1 m/S 727 mmHg 49%
    17:00 +33°C° 0 mm 1 m/S 728 mmHg 52%
    18:00 +30°C° 0 mm 0 m/S 728 mmHg 56%
    19:00 +29°C° 0 mm 0 m/S 728 mmHg 59%
    20:00 +28°C° 0.1 mm 0 m/S 728 mmHg 63%
    21:00 +29°C° 0.1 mm 1 m/S 729 mmHg 68%
    22:00 +28°C° 0.1 mm 1 m/S 729 mmHg 72%
    23:00 +28°C° 3 mm 1 m/S 729 mmHg 79%
    Mehr zeigen